Torna al catalogo

STARLINK-35296

AttivoComunicazioniSSO
NORAD 65801·PAYLOAD·🇺🇸 United States

Lanciato Sep 26, 2025 da Vandenberg Space Force Base

Loading…

Prossimi Passaggi (prossime 24 ore)

TLE

AggiornatoSource: CelesTrak SupGP

Epoca: Sep 14, 2026, 22:47 UTC

1 65801C 25218L   26257.94979167  .00076945  00000+0  23893-2 0  2576
2 65801  97.2838 115.3327 0001524  90.4621  69.6529 15.33390679    19

Traccia STARLINK-35296 in tempo reale con AllMySat

Download on the App Store